EW1145 Weather Reports


Display with metric or nautical units.
time (UTC)temp
F
wind
direction
speed
MPH
gust
MPH
rain 1hr
in
rain 24hr
in
rain mn
in
humidity
%
barometer
mb
20260506044513 58 51 0.0 0.0 0.00 0.00 0.00 84 1016.2
20260506043005 58 51 0.0 0.0 0.00 0.00 0.00 85 1016.0
20260506041505 58 51 0.0 0.0 0.00 0.00 0.00 84 1015.8
20260506040004 59 51 0.0 0.0 0.00 0.00 0.00 82 1015.5
20260506034505 59 51 0.0 0.0 0.00 0.00 0.00 80 1015.3
20260506033006 60 51 0.0 0.0 0.00 0.00 0.00 79 1015.1
20260506031503 61 51 0.0 0.0 0.00 0.00 0.00 77 1015.0
20260506030003 62 51 0.0 0.0 0.00 0.00 0.00 76 1014.9
20260506024502 64 51 0.0 0.0 0.00 0.00 0.00 72 1014.8
20260506023002 65 51 0.0 1.0 0.00 0.00 0.00 71 1014.7
20260506021502 65 51 0.0 1.0 0.00 0.00 0.00 69 1014.6
20260506020002 66 50 0.0 1.0 0.00 0.00 0.00 68 1014.6
20260506014502 67 49 0.0 1.0 0.00 0.00 0.00 67 1014.6
20260506013105 67 49 0.0 1.0 0.00 0.00 0.00 68 1014.5
20260506011605 66 50 0.0 2.0 0.00 0.00 0.00 69 1014.6
20260506010057 65 109 0.0 1.0 0.00 0.00 0.00 69 1014.6
20260506004600 66 109 0.0 2.0 0.00 0.00 0.00 69 1014.7
20260506003055 66 90 0.0 5.0 0.00 0.00 0.00 68 1014.7
20260506001558 65 121 0.0 2.0 0.00 0.00 0.00 69 1014.7
20260506000059 65 153 0.0 3.0 0.00 0.00 0.00 70 1014.9
20260505234552 64 92 1.0 5.0 0.00 0.00 0.00 70 1014.9
20260505233055 65 88 0.0 3.0 0.00 0.00 0.00 70 1015.2
20260505231549 64 112 0.0 3.0 0.00 0.00 0.00 71 1015.4
20260505230111 63 90 1.0 5.0 0.00 0.00 0.00 72 1015.4
20260505224545 63 107 0.0 4.0 0.00 0.00 0.00 73 1015.6
20260505223045 63 38 0.0 6.0 0.00 0.00 0.00 73 1015.6
20260505221550 62 99 0.0 4.0 0.00 0.00 0.00 73 1015.7
20260505220052 62 49 0.0 7.0 0.00 0.00 0.00 73 1015.8
20260505214542 62 24 0.0 4.0 0.00 0.00 0.00 74 1015.8
20260505213042 62 342 0.0 4.0 0.00 0.00 0.00 73 1015.8
20260505211547 62 269 1.0 7.0 0.00 0.00 0.00 73 1015.8
20260505210040 62 350 0.0 5.0 0.00 0.00 0.00 72 1016.0
20260505204539 62 5 1.0 5.0 0.00 0.00 0.00 72 1016.1
20260505203036 61 28 0.0 4.0 0.00 0.00 0.00 74 1016.3
20260505201533 60 81 1.0 5.0 0.00 0.00 0.00 78 1016.3
20260505200037 59 335 0.0 5.0 0.00 0.00 0.00 81 1016.3
20260505194529 58 22 2.0 5.0 0.00 0.00 0.00 80 1016.4
20260505193028 58 309 0.0 4.0 0.00 0.00 0.00 82 1016.4
20260505191529 57 67 0.0 1.0 0.00 0.00 0.00 83 1016.4
20260505190022 57 277 0.0 1.0 0.00 0.00 0.00 88 1016.4
20260505184520 56 277 0.0 0.0 0.00 0.00 0.00 88 1016.4
20260505183020 55 277 0.0 0.0 0.00 0.00 0.00 89 1016.3
20260505181521 55 277 0.0 0.0 0.00 0.00 0.00 90 1016.4
20260505180015 55 277 0.0 0.0 0.00 0.00 0.00 91 1016.3
20260505174514 55 277 0.0 0.0 0.00 0.00 0.00 93 1016.3
20260505173014 54 277 0.0 0.0 0.00 0.00 0.00 93 1016.3
20260505171510 53 277 0.0 0.0 0.00 0.00 0.00 93 1016.1
20260505170008 53 277 0.0 0.0 0.00 0.00 0.00 94 1016.0
20260505164506 53 277 0.0 0.0 0.00 0.00 0.00 95 1015.9
20260505163007 52 277 0.0 0.0 0.00 0.00 0.00 94 1015.9
20260505161509 52 277 0.0 0.0 0.00 0.00 0.00 94 1015.8
20260505153001 53 277 0.0 0.0 0.00 0.00 0.00 92 1015.7
20260505151600 53 277 0.0 0.0 0.00 0.00 0.00 91 1015.6
20260505150108 53 277 0.0 0.0 0.00 0.00 0.00 91 1015.5
20260505130104 52 277 0.0 0.0 0.00 0.00 0.00 92 1014.6
20260505124552 51 277 0.0 0.0 0.00 0.00 0.00 91 1014.6
20260505123047 51 277 0.0 0.0 0.00 0.00 0.00 92 1014.5
20260505121547 51 277 0.0 0.0 0.00 0.00 0.00 92 1014.5
20260505120049 51 277 0.0 0.0 0.00 0.00 0.00 92 1014.5
20260505114549 52 277 0.0 0.0 0.00 0.00 0.00 92 1014.4
20260505113044 52 277 0.0 0.0 0.00 0.00 0.00 92 1014.4
20260505111543 51 277 0.0 0.0 0.00 0.00 0.00 93 1014.3
20260505101544 51 277 0.0 0.0 0.00 0.00 0.00 94 1013.9
20260505100037 50 277 0.0 0.0 0.00 0.00 0.00 95 1014.0
20260505094536 50 277 0.0 0.0 0.00 0.00 0.00 95 1013.9
20260505093036 49 277 0.0 0.0 0.00 0.00 0.00 95 1013.7
20260505091535 49 277 0.0 0.0 0.00 0.00 0.00 93 1013.6
20260505090041 50 277 0.0 0.0 0.00 0.00 0.00 92 1013.5
20260505084527 50 277 0.0 0.0 0.00 0.00 0.00 92 1013.4
20260505083026 51 277 0.0 0.0 0.00 0.00 0.00 92 1013.3
20260505081523 51 277 0.0 0.0 0.00 0.00 0.00 92 1013.3
20260505080037 51 277 0.0 0.0 0.00 0.00 0.00 91 1013.2
20260505074525 51 277 0.0 0.0 0.00 0.00 0.00 91 1013.0
20260505073028 52 277 0.0 0.0 0.00 0.00 0.00 90 1012.8
20260505071513 52 277 0.0 0.0 0.00 0.00 0.00 88 1012.6
20260505070011 53 277 0.0 0.0 0.00 0.00 0.00 88 1012.4
20260505064511 53 277 0.0 0.0 0.00 0.00 0.00 87 1012.3
20260505063010 54 277 0.0 0.0 0.00 0.00 0.00 86 1012.2
20260505061509 54 277 0.0 0.0 0.00 0.00 0.00 85 1011.8
20260505060009 55 277 0.0 0.0 0.00 0.00 0.00 84 1011.8
20260505054509 56 277 0.0 0.0 0.00 0.00 0.00 83 1011.8